sat.trackr.live / text

‹ back to catalog

STARLINK-11613 [DTC]

NORAD 63136 · 2025-043E

PAYLOAD ACTIVE UNKNOWN

§ Identity

Operator
Country
US
Launch date
2025-03-03
Launch site
AFETR
Launch vehicle
Mass (kg)
RCS (m²)

Purposes: comms

External: N2YO · Heavens-Above · Gunter

§ Orbital elements

Epoch: 2026-09-20T17:34:53.791392Z

Period
91.67 min
Inclination
43.0009°
Eccentricity
0.0002395
Mean motion
15.70866522 rev/d
Perigee alt
354.8 km
Apogee alt
358.0 km
Semi-major
6,734.6 km
B*
7.3455e-4
RAAN
155.3923°
Arg perigee
303.3043°
Mean anomaly
56.7595°
Rev number
9,014

§ Raw data

STARLINK-11613 [DTC]1 63136U 25043E   26263.73256703  .00095000  00000+0  73455-3 0  99952 63136  43.0009 155.3923 0002395 303.3043  56.7595 15.70866522 90143

JSON: /api/v1/satellites/63136 · /tle

For live sub-satellite position, see the globe view (requires WebGL).

§ Visibility from observer

Set your observer location to see the next 7 days of passes ≥ 10°. The values pass through the URL so the page stays shareable.

No JS? Fill the form by hand. The geolocation button needs JavaScript.